Regional Weather Roundup
Issued by NWS

Home | Current Version | Previous Version | Text Only | Print | Product List | Glossary Off
Versions: 1 2 3 4 5 6 7 8 9 10 11 12 13 14 15 16 17 18 19 20 21 22 23 24 25 26 27 28 29 30 31 32 33 34 35 36 37 38 39 40 41 42 43 44 45 46 47 48 49 50

334
ASUS43 KMPX 222001
RWRMN
WEATHER ROUNDUP FOR MINNESOTA
NATIONAL WEATHER SERVICE TWIN CITIES/CHANHASSEN MN
200 PM CST THU FEB 22 2018


NOTE: "FAIR" INDICATES FEW OR NO CLOUDS BELOW 12,000 FEET WITH NO
SIGNIFICANT WEATHER AND/OR OBSTRUCTIONS TO VISIBILITY. N/A MEANS
CURRENT SKY AND/OR WEATHER CONDITIONS ARE NOT AVAILABLE.

MNZ060>063-068>070-222100-
   Twin Cities Metro

CITY           SKY/WX    TMP DP  RH WIND       PRES   REMARKS
TWIN CITIES    CLOUDY    28  14  55 E7        30.46F WCI  21
ST PAUL        CLOUDY    28  14  55 NE7       30.47F WCI  21
CRYSTAL        CLOUDY    27  11  51 E6        30.45F WCI  20
BLAINE         CLOUDY    28  14  54 E8        30.45F WCI  20
LAKEVILLE      FAIR      25  18  74 E8        30.43F WCI  16
EDEN PRAIRIE   CLOUDY    28  15  58 E7        30.44F WCI  21
SOUTH ST PAUL  FAIR      30  12  48 E3        30.46F
LAKE ELMO      PTSUNNY   28  14  54 E7        30.46F WCI  21
$$
MNZ001>005-007-008-013>017-022>024-027-028-222100-
   Northwest Minnesota

CITY           SKY/WX    TMP DP  RH WIND       PRES   REMARKS
BEMIDJI        FAIR      26   2  34 S5        30.38F WCI  21
HALLOCK        FAIR      14   9  79 S22       30.36F WCI  -4
ROSEAU         FAIR      19  10  68 S13       30.37F WCI   7
WARROAD        FAIR      21  10  63 SW14      30.37F WCI   8
THIEF RVR FALL FAIR      20  10  65 SW14      30.39F WCI   7
CROOKSTON      FAIR      19  12  73 S20       30.40F WCI   4
FOSSTON        CLOUDY    25   7  46 S12       30.39S WCI  14
DETROIT LAKES  PTSUNNY   25  10  54 SE12      30.39F WCI  14
MOORHEAD       PTSUNNY   21  12  68 S17       30.41F WCI   7
PARK RAPIDS    CLOUDY    23   5  46 S8        30.39F WCI  14
MAHNOMEN       CLOUDY    23   8  53 S17       30.39S WCI   9
$$
MNZ006-009>011-018-025>026-222100-
   North Central Minnesota

CITY           SKY/WX    TMP DP  RH WIND       PRES   REMARKS
BAUDETTE       FAIR      23   3  42 S9        30.36F WCI  13
FLAG ISLAND    FAIR      16   5  62 S9        30.35F WCI   4
INTL FALLS     FAIR      26   1  34 SW9       30.39F WCI  17
WASKISH        FAIR      21   7  53 NW3       30.40F
BIG FORK       FAIR      27   5  39 S7        30.40F WCI  19
LONGVILLE      CLOUDY    25   0  33 S8        30.41F WCI  16
GRAND RAPIDS   PTSUNNY   24   3  40 S10       30.43F WCI  14
CRANE LAKE     FAIR      27  -2  28 S3        30.45F
ORR            FAIR      28  -4  24 SW6       30.39F WCI  22
COOK             N/A     27   1  33 SE7       30.41F WCI  19
WALKER         FAIR      25   4  40 SE6       30.39F WCI  18
$$
MNZ012-019>021-037-222100-
   Northeast Minnesota

CITY           SKY/WX    TMP DP  RH WIND       PRES   REMARKS
DULUTH         PTSUNNY   22   3  44 S7        30.45F WCI  13
ELY            FAIR      28   1  31 S7        30.42F WCI  21
HIBBING        FAIR      25   2  37 VRB6      30.42F WCI  18
DULUTH HARBOR  PTSUNNY   19  10  68 CALM      30.53F
TWO HARBORS    PTSUNNY   32  10  40 CALM      30.47F
GRAND MARAIS     N/A     25  13  60 SE5       30.55F WCI  19
G MARAIS ARPRT FAIR      21   7  53 S6        30.46F WCI  14
$$
MNZ029>031-032-039>041-046>048-054>057-064-222100-
   West Central Minnesota

CITY           SKY/WX    TMP DP  RH WIND       PRES   REMARKS
FERGUS FALLS   CLOUDY    21  12  68 S13       30.41F WCI   9
WHEATON        CLOUDY    21  16  79 SE12      30.42F WCI   9
MORRIS         CLOUDY    25  16  68 SE8       30.38F WCI  16
ALEXANDRIA     CLOUDY    23  12  62 SE7       30.39F WCI  15
ELBOW LAKE     CLOUDY    22  14  70 SE10      30.40F WCI  12
WADENA         CLOUDY    21   7  53 S6        30.40F WCI  14
GLENWOOD       FAIR      25  14  63 E7        30.39F WCI  17
APPLETON       CLOUDY    25  16  68 E7        30.40F WCI  17
BENSON         CLOUDY    25  16  68 SE7       30.41F WCI  17
MADISON        CLOUDY    27  18  69 SE7       30.40F WCI  19
WILLMAR        FAIR      25  18  74 SE9       30.42F WCI  15
$$
MNZ033>034-036-042>043-049>051-058-059-222100-
   Central Minnesota

CITY           SKY/WX    TMP DP  RH WIND       PRES   REMARKS
ST CLOUD       CLOUDY    22  11  62 SE8       30.44F WCI  12
PAYNESVILLE    CLOUDY    25  17  72 SE5       30.41F WCI  19
AITKIN         FAIR      21   3  45 SE6       30.44F WCI  14
PINE RIVER     CLOUDY    21   3  45 S7        30.44F WCI  13
BRAINERD       CLOUDY    24   4  42 S7        30.44F WCI  16
STAPLES        CLOUDY    21   5  49 S7        30.41F WCI  13
LONG PRAIRIE   CLOUDY    23  12  63 E6        30.41F WCI  16
LITTLE FALLS   CLOUDY    23   3  42 SE7       30.44F WCI  15
LITCHFIELD     CLOUDY    25  18  74 E8        30.42F WCI  16
BUFFALO        CLOUDY    24  13  62 N3        30.46F
MAPLE LAKE     CLOUDY    23  13  66 E5        30.46F WCI  17
HUTCHINSON     CLOUDY    27  18  69 NE8       30.42F WCI  18
$$
MNZ037-044-045-052-053-222100-
   East Central Minnesota

CITY           SKY/WX    TMP DP  RH WIND       PRES   REMARKS
PRINCETON      CLOUDY    25   9  50 CALM      30.45F
CAMBRIDGE      CLOUDY    25  10  54 NE5       30.47F WCI  19
RUSH CITY      CLOUDY    22  10  57 CALM      30.47F
MOOSE LAKE     CLOUDY    28   5  37 CALM      30.45F
HINCKLEY       CLOUDY    27   7  43 SE5       30.47F WCI  21
CLOQUET        CLOUDY    21   1  42 SE5       30.46F WCI  15
MCGREGOR       CLOUDY    28   3  34 S6        30.46S WCI  22
$$
MNZ071>073-080-081-089-090-097-098-222100-
   Southwest Minnesota

CITY           SKY/WX    TMP DP  RH WIND       PRES   REMARKS
MONTEVIDEO     CLOUDY    27  18  69 S7        30.40F WCI  19
GRANITE FALLS  CLOUDY    28  20  72 NE7       30.40F WCI  20
CANBY          CLOUDY    24  19  81 E6        30.39F WCI  17
MARSHALL       FLURRIES  24  19  81 SE8       30.38S WCI  15
REDWOOD FALLS  CLOUDY    25  20  81 E12       30.39F WCI  14
OLIVIA         CLOUDY    28  21  74 E8        30.38F WCI  20
PIPESTONE      LGT SNOW  25  19  80 E8        30.29F WCI  16
WORTHINGTON    CLOUDY    24  20  84 NE15      30.30F WCI  11
JACKSON        CLOUDY    25  21  86 NE14      30.32F WCI  13
TRACY          LGT SNOW  25  22  88 E7        30.36F WCI  17
SLAYTON        FLURRIES  23  20  89 NE9       30.32F WCI  13
$$
MNZ065>067-074>077-082>085-091>093-222100-
   South Central Minnesota

CITY           SKY/WX    TMP DP  RH WIND       PRES   REMARKS
MANKATO        CLOUDY    28  21  75 E9        30.41F WCI  19
NEW ULM        CLOUDY    25  18  74 NE9       30.40F WCI  15
ST JAMES       FLURRIES  25  21  86 NE9       30.39F WCI  15
FAIRMONT       CLOUDY    30  24  78 E12       30.34F WCI  20
GLENCOE        CLOUDY    27  19  70 E9        30.42F WCI  18
FARIBAULT      FAIR      27  19  74 NE9       30.41F WCI  17
OWATONNA       CLOUDY    28  21  74 E9        30.39F WCI  20
WASECA         CLOUDY    30  25  80 NE7       30.39F WCI  23
ALBERT LEA     FAIR      28  21  74 E10       30.36F WCI  19
$$
MNZ078>079-086>088-094>096-222100-
   Southeast Minnesota

CITY           SKY/WX    TMP DP  RH WIND       PRES   REMARKS
ROCHESTER      CLOUDY    27  22  81 NE12      30.39F WCI  17
RED WING       PTSUNNY   28   9  43 E9        30.45F WCI  20
STANTON        CLOUDY    28  18  64 E12       30.42F WCI  18
DODGE CENTER   FAIR      27  21  80 E12       30.38F WCI  16
WINONA         CLOUDY    30  19  64 SE8       30.45F WCI  23
AUSTIN         FAIR      28  21  74 E10       30.37F WCI  19
PRESTON        CLOUDY    26  20  78 NE6       30.40F WCI  20
$$
ABBREVIATIONS USED IN REMARKS
   TC - TEMPERATURES IN CELSIUS
  WCI - WIND CHILL INDEX
   HX - HEAT INDEX
  VSB - VISIBILITY
$$




USA.gov is the U.S. government's official web portal to all federal, state and local government web resources and services.